Regional Weather Roundup
Issued by NWS

Home | Current Version | Previous Version | Text Only | Print | Product List | Glossary Off
Versions: 1 2 3 4 5 6 7 8 9 10 11 12 13 14 15 16 17 18 19 20 21 22 23 24 25 26 27 28 29 30 31 32 33 34 35 36 37 38 39 40 41 42 43 44 45 46 47 48 49 50

000
ASUS43 KDMX 252207
RWRIA

WEATHER ROUNDUP FOR IOWA
NATIONAL WEATHER SERVICE DES MOINES IA
500 PM CDT MON MAY 25 2015

NOTE: "FAIR" INDICATES FEW OR NO CLOUDS BELOW 12,000 FEET WITH NO
SIGNIFICANT WEATHER AND/OR OBSTRUCTIONS TO VISIBILITY.

* - THESE STATIONS ARE NOT NWS STATIONS...THUS NOT UNDER NWS
QUALITY CONTROL.  THEY ALSO DO NOT REPORT WEATHER SUCH
AS PRECIPITATION OR FOG.

IAZ001>003-012>014-020>022-031>034-043>046-252300-
   NORTHWEST IOWA

CITY           SKY/WX    TMP DP  RH WIND       PRES   REMARKS
CARROLL *      MOSUNNY   81  57  44 S16G23    29.78F HX  81
CHEROKEE *     SUNNY     77  55  47 SW15      29.76S
DENISON *      MOSUNNY   79  57  47 SW13G21   29.76F HX  80
LE MARS *      MOSUNNY   79  54  41 SW18G28   29.75S
ORANGE CITY *  SUNNY     75  55  50 SW15      29.76R
SHELDON *      MOSUNNY   75 -35   1 SW18      29.74S
SIOUX CITY     PTSUNNY   80  55  42 SW22      29.75F HX  80
SPENCER          N/A     79  56  45 SW20      29.75F HX  80
STORM LAKE *   SUNNY     77  54  44 SW20G26   29.79R
$$

IAZ055>058-069>071-079>083-090>094-252300-
   SOUTHWEST IOWA

CITY           SKY/WX    TMP DP  RH WIND       PRES   REMARKS
ATLANTIC *     MOSUNNY   79  63  57 S22G28    29.78F HX  80
AUDUBON *      SUNNY     79  64  61 S13       29.80F HX  81
CLARINDA *     MOSUNNY   79  66  65 S16G23    29.81F HX  81
COUNCIL BLFS * MOSUNNY   77  64  65 S12G17    29.77F
CRESTON *      PTSUNNY   77  64  65 SW17G26   29.82F
HARLAN  *      PTSUNNY   77  64  65 SW12G20   29.81F
LAMONI         PTSUNNY   80  65  59 S13       29.84F HX  82
RED OAK *      PTSUNNY   79  63  57 S17       29.78F HX  80
SHENANDOAH *   PTSUNNY   79  64  61 S15G23    29.79F HX  81
$$

IAZ047>049-059>061-072>074-084-252300-
   CENTRAL IOWA

CITY           SKY/WX    TMP DP  RH WIND       PRES   REMARKS
AMES           MOSUNNY   78  61  55 SW15G25   29.80F HX  80
ANKENY *       PTSUNNY   79  64  61 S16G24    29.80F HX  81
CHARITON *     MOSUNNY   77  66  69 S17G25    29.85F
DES MOINES     MOSUNNY   79  62  56 SW22G28   29.81F HX  80
GRINNELL*      PTSUNNY   75  63  64 S17G24    29.84F
KNOXVILLE *    MOSUNNY   79  63  57 S17G26    29.82F HX  80
MARSHALLTOWN   MOSUNNY   78  63  59 S16       29.81S HX  80
PELLA *        MOSUNNY   77  68  73 S14G22    29.85F
PERRY *        PTSUNNY   77  61  57 SW16      29.80F
$$

IAZ004>006-015-016-023>025-035-036-252300-
   NORTH CENTRAL IOWA

CITY           SKY/WX    TMP DP  RH WIND       PRES   REMARKS
ALGONA *       MOSUNNY   77 -31   1 SW20      29.78R
CLARION *      SUNNY     79  59  50 SW22G30   29.79S HX  80
ESTHERVILLE    MOSUNNY   76  57  51 SW17G25   29.74F
FORT DODGE *   MOSUNNY   75  59  57 SW14G21   29.80S
MASON CITY     MOSUNNY   78  58  49 SW21G29   29.80S
FOREST CITY *  PTSUNNY   73  55  53 SW20G26   29.78R
IOWA FALLS *     N/A     79  61  53 SW17G25   29.82S HX  80
$$

IAZ007>011-017>019-026>030-037>042-050>054-066-252300-
   NORTHEAST IOWA

CITY           SKY/WX    TMP DP  RH WIND       PRES   REMARKS
CEDAR RAPIDS   MOSUNNY   78  62  57 S17       29.85S HX  80
CHARLES CITY * PTSUNNY   75  61  60 SW15G24   29.80S
CLINTON *      MOSUNNY   81  61  50 SW21      29.91S HX  81
DECORAH *      PTSUNNY   75  59  57 SW14G26   29.80R
DUBUQUE        MOSUNNY   77  62  59 SW20G30   29.85F
MONTICELLO *   MOSUNNY   77  63  61 S20G25    29.85F
OELWEIN *      PTSUNNY   77  61  57 SW23G32   29.83R
WATERLOO       PTSUNNY   77  60  55 SW16G28   29.80S
$$

IAZ064-065-067-068-078-252300-
   EAST CENTRAL IOWA

CITY           SKY/WX    TMP DP  RH WIND       PRES   REMARKS
DAVENPORT      MOSUNNY   77  60  55 S20G25    29.90R
IOWA CITY      MOSUNNY   79  61  53 S20G28    29.88S HX  80
MT. PLEASANT * PTSUNNY   77  63  61 S18G25    29.91R
MUSCATINE *    PTSUNNY   79  63  57 S12G20    29.89S HX  80
QUAD CITIES    MOSUNNY   78  60  53 S20G26    29.89R
$$

IAZ062-063-075>077-085>089-095>099-252300-
   SOUTHEAST IOWA

CITY           SKY/WX    TMP DP  RH WIND       PRES   REMARKS
BURLINGTON     MOSUNNY   79  64  60 S17G26    29.91S HX  81
FAIRFIELD *    SUNNY     79  64  61 S17G26    29.89F HX  81
FORT MADISON * SUNNY     79  64  61 S12G21    29.93R HX  81
KEOKUK *       MOSUNNY   77  64  65 S12G20    29.92R
OSKALOOSA *    PTSUNNY   77  63  61 S22G28    29.87S
CENTERVILLE *  MOSUNNY   77  77 100 S18       29.88F
OTTUMWA        MOSUNNY   77  63  61 SW21G29   29.86S
WASHINGTON *   MOSUNNY   79  64  61 S15G28    29.90S HX  81
$$

ABBREVIATIONS USED IN REMARKS
   TC - TEMPERATURES IN CELSIUS
  WCI - WIND CHILL INDEX
   HX - HEAT INDEX
  VSB - VISIBILITY
$$




USA.gov is the U.S. government's official web portal to all federal, state and local government web resources and services.